Location: Hohe Wand Kleine Kanzel
(47.8330°N, 16.0170°E)
Time: 18:03:26
(UTC+02:00)

Courier 1B Rocket - Pass Details

Date: 07 August 2021
Orbit: 920 x 1202 km, 28.3° (Epoch: 23 September)

Event Time Altitude Azimuth Distance (km) Brightness Sun altitude
Rises 00:57:38 0° 225° (SW) 3,960 - -25.7°
Reaches altitude 10° 01:02:10 10° 201° (SSW) 2,938 - -25.7°
Maximum altitude 01:05:24 13° 174° (S) 2,637 - -25.7°
Drops below altitude 10° 01:08:32 10° 146° (SSE) 2,842 - -25.7°
Sets 01:12:46 0° 121° (ESE) 3,729 - -25.7°
